CW0775 Weather Reports


time (UTC)temp
F
wind
direction
speed
knots
gust
knots
rain 1hr
in
rain 24hr
in
rain mn
in
humidity
%
barometer
mb
20260903134504 78 302 4.3 8.7 0.00 0.00 0.00 52 1019.6
20260903134004 80 268 5.2 8.7 0.00 0.00 0.00 52 1019.5
20260903133504 80 295 1.7 8.7 0.00 0.00 0.00 50 1019.5
20260903133004 79 265 5.2 11.3 0.00 0.00 0.00 51 1019.6
20260903131504 77 271 4.3 13.0 0.00 0.00 0.00 52 1019.3
20260903131004 78 304 6.1 12.2 0.00 0.00 0.00 52 1019.5
20260903130004 78 296 7.8 12.2 0.00 0.00 0.00 53 1019.5
20260903124504 79 286 6.1 8.7 0.00 0.00 0.00 52 1019.6
20260903124004 79 296 2.6 6.1 0.00 0.00 0.00 52 1019.6
20260903123504 78 287 2.6 7.0 0.00 0.00 0.00 52 1019.6
20260903123004 77 276 1.7 12.2 0.00 0.00 0.00 53 1019.6
20260903121504 76 289 7.0 12.2 0.00 0.00 0.00 54 1019.6
20260903121004 76 274 6.1 14.8 0.00 0.00 0.00 54 1019.8
20260903120504 77 326 6.1 11.3 0.00 0.00 0.00 54 1019.6
20260903120004 77 262 2.6 11.3 0.00 0.00 0.00 53 1019.6
20260903114005 77 296 2.6 7.0 0.00 0.00 0.00 54 1019.6
20260903111504 74 273 4.3 12.2 0.00 0.00 0.00 58 1020.2
20260903111004 74 242 8.7 18.2 0.00 0.00 0.00 57 1020.1
20260903110505 74 260 8.7 18.2 0.00 0.00 0.00 57 1020.3
20260903110004 75 251 5.2 12.2 0.00 0.00 0.00 56 1020.1
20260903104504 75 292 7.0 12.2 0.00 0.00 0.00 56 1019.6
20260903104005 75 288 5.2 19.1 0.00 0.00 0.00 56 1019.6
20260903103504 75 268 7.8 18.2 0.00 0.00 0.00 56 1019.6
20260903103004 75 275 11.3 19.1 0.00 0.00 0.00 56 1020.0
20260903101504 75 302 5.2 8.7 0.00 0.00 0.00 56 1020.1
20260903101004 75 302 5.2 8.7 0.00 0.00 0.00 57 1020.2
20260903100505 74 285 5.2 15.6 0.00 0.00 0.00 56 1020.3
20260903100004 75 270 11.3 15.6 0.00 0.00 0.00 56 1020.1
20260903094505 73 311 4.3 12.2 0.00 0.00 0.00 57 1020.3
20260903093504 74 297 4.3 11.3 0.00 0.00 0.00 57 1020.3
20260903093006 74 310 1.7 11.3 0.00 0.00 0.00 57 1020.3
20260903091505 73 267 6.1 13.0 0.00 0.00 0.00 58 1020.7
20260903091005 73 291 1.7 7.0 0.00 0.00 0.00 59 1020.7
20260903090506 73 244 3.5 4.3 0.00 0.00 0.00 60 1020.7
20260903090005 71 271 1.7 4.3 0.00 0.00 0.00 63 1020.7
20260903084506 68 277 1.7 6.1 0.00 0.00 0.00 67 1020.7
20260903084005 68 285 4.3 7.0 0.00 0.00 0.00 68 1020.7
20260903083505 67 302 2.6 4.3 0.00 0.00 0.00 69 1020.7
20260903083006 67 279 1.7 4.3 0.00 0.00 0.00 71 1020.7
20260903081005 67 274 1.7 2.6 0.00 0.00 0.00 72 1020.7
20260903080507 68 250 1.7 2.6 0.00 0.00 0.00 70 1020.7
20260903080005 67 279 0.0 4.3 0.00 0.00 0.00 71 1020.7
20260903074506 64 282 1.7 2.6 0.00 0.00 0.00 76 1021.0
20260903074005 63 271 1.7 2.6 0.00 0.00 0.00 77 1021.0
20260903073505 63 276 2.6 4.3 0.00 0.00 0.00 79 1021.0
20260903073005 63 295 1.7 4.3 0.00 0.00 0.00 78 1020.7
20260903071506 62 249 0.0 0.0 0.00 0.00 0.00 79 1020.9
20260903071005 61 230 0.9 1.7 0.00 0.00 0.00 81 1021.0
20260903070506 60 184 0.9 1.7 0.00 0.00 0.00 83 1021.0
20260903070006 59 203 0.0 2.6 0.00 0.00 0.00 85 1021.3
20260903064005 58 253 0.0 0.0 0.00 0.00 0.00 87 1021.3
20260903063506 57 258 0.0 1.7 0.00 0.00 0.00 88 1021.2
20260903063005 56 294 0.0 2.6 0.00 0.00 0.00 89 1021.0
20260903061505 56 290 0.0 1.7 0.00 0.00 0.00 90 1021.3
20260903061006 56 257 0.9 2.6 0.00 0.00 0.00 89 1021.3
20260903060506 56 276 0.0 0.0 0.00 0.00 0.00 89 1021.3
20260903060005 55 271 0.0 0.0 0.00 0.00 0.00 90 1021.3
20260903054506 54 279 0.0 0.0 0.00 0.00 0.00 91 1021.5
20260903054005 54 276 0.0 0.0 0.00 0.00 0.00 92 1021.3
20260903053506 54 273 0.0 0.0 0.00 0.00 0.00 92 1021.0
20260903053006 53 273 0.0 0.0 0.00 0.00 0.00 93 1021.0
20260903051505 53 273 0.0 0.0 0.00 0.00 0.00 93 1021.0
20260903051005 52 274 0.0 0.0 0.00 0.00 0.00 93 1021.0
20260903050506 52 273 0.0 0.0 0.00 0.00 0.00 93 1020.7
20260903050005 52 264 0.0 0.0 0.00 0.00 0.00 94 1021.0
20260903044505 52 275 0.0 1.7 0.00 0.00 0.00 94 1021.0
20260903044005 52 262 0.0 0.0 0.00 0.00 0.00 94 1021.0
20260903043505 52 272 0.0 0.0 0.00 0.00 0.00 94 1021.3
20260903043005 52 273 0.0 0.0 0.00 0.00 0.00 95 1021.3
20260903041505 52 272 0.0 0.0 0.00 0.00 0.00 95 1021.2
20260903041005 52 272 0.0 0.0 0.00 0.00 0.00 95 1021.0
20260903040507 51 272 0.0 0.0 0.00 0.00 0.00 95 1021.0
20260903040008 51 272 0.0 0.0 0.00 0.00 0.00 95 1020.8
20260903034506 50 272 0.0 0.0 0.00 0.00 0.00 94 1020.7
20260903034005 51 272 0.0 0.0 0.00 0.00 0.00 94 1020.7
20260903033505 51 272 0.0 0.0 0.00 0.00 0.00 94 1020.7
20260903033005 51 272 0.0 1.7 0.00 0.00 0.00 94 1021.0
20260903031510 51 271 0.0 0.0 0.00 0.00 0.00 94 1021.0
20260903030506 51 271 0.0 0.0 0.00 0.00 0.00 94 1021.0
20260903030005 51 271 0.0 0.0 0.00 0.00 0.00 93 1021.0
20260903023505 51 227 0.0 0.0 0.00 0.00 0.00 93 1021.3
20260903023005 51 256 0.0 0.0 0.00 0.00 0.00 93 1021.5
20260903021505 52 246 0.0 1.7 0.00 0.00 0.00 93 1021.3
20260903021005 52 250 0.0 0.0 0.00 0.00 0.00 93 1021.0
20260903020005 52 250 0.0 0.0 0.00 0.00 0.00 92 1021.3
20260903014505 52 256 0.0 0.0 0.00 0.00 0.00 92 1021.2
20260903011005 52 274 0.0 0.0 0.00 0.00 0.00 91 1021.3
20260903010506 53 274 0.0 1.7 0.00 0.00 0.00 91 1021.4
20260903004506 52 273 0.0 0.0 0.00 0.00 0.00 91 1021.5
20260903004005 53 273 0.0 0.0 0.00 0.00 0.00 91 1021.3
20260903003506 53 273 0.9 1.7 0.00 0.00 0.00 90 1021.6
20260903001505 53 277 0.0 0.0 0.00 0.00 0.00 90 1021.6
20260903001005 53 277 0.0 0.0 0.00 0.00 0.00 90 1021.3
20260903000005 53 277 0.0 2.6 0.00 0.00 0.00 90 1021.4
20260902234505 53 277 0.9 1.7 0.00 0.00 0.00 90 1021.3
20260902233004 54 277 0.0 0.0 0.00 0.00 0.00 89 1021.7
20260902231504 54 277 0.0 1.7 0.00 0.00 0.00 88 1021.7
20260902231004 54 277 1.7 2.6 0.00 0.00 0.00 88 1021.7
20260902230505 55 278 0.9 2.6 0.00 0.00 0.00 88 1021.3
20260902230005 55 274 0.0 0.0 0.00 0.00 0.00 88 1021.3
20260902224505 56 274 0.0 0.0 0.00 0.00 0.00 86 1021.7
20260902224005 56 274 0.0 0.0 0.00 0.00 0.00 86 1021.5
20260902223504 57 274 0.0 0.0 0.00 0.00 0.00 85 1021.4
20260902223005 57 275 0.0 1.7 0.00 0.00 0.00 85 1021.7
20260902221505 57 276 0.0 0.0 0.00 0.00 0.00 85 1021.3
20260902220505 57 276 0.0 0.0 0.00 0.00 0.00 85 1021.7
20260902220006 57 276 0.0 1.7 0.00 0.00 0.00 85 1021.3
20260902214505 58 276 0.0 0.0 0.00 0.00 0.00 83 1021.3
20260902213505 58 276 0.0 0.0 0.00 0.00 0.00 82 1021.3
20260902213005 58 276 0.0 0.0 0.00 0.00 0.00 82 1021.3
20260902211505 58 276 0.0 0.0 0.00 0.00 0.00 81 1021.0
20260902210506 59 277 0.0 0.0 0.00 0.00 0.00 80 1021.0
20260902210005 59 277 0.0 1.7 0.00 0.00 0.00 79 1021.3
20260902204505 59 277 0.9 1.7 0.00 0.00 0.00 78 1021.0
20260902203004 60 276 0.0 0.0 0.00 0.00 0.00 77 1021.0
20260902201504 60 276 0.0 0.0 0.00 0.00 0.00 77 1021.3
20260902200505 60 276 0.0 0.0 0.00 0.00 0.00 76 1021.1
20260902200004 61 276 0.0 0.0 0.00 0.00 0.00 75 1021.0
20260902194505 61 278 0.0 1.7 0.00 0.00 0.00 75 1021.0
20260902194005 61 271 0.0 1.7 0.00 0.00 0.00 74 1021.0
20260902193505 61 269 0.0 0.0 0.00 0.00 0.00 73 1021.0
20260902193005 61 269 0.0 1.7 0.00 0.00 0.00 73 1020.7
20260902191504 62 269 0.9 1.7 0.00 0.00 0.00 70 1020.7
20260902191005 61 269 1.7 2.6 0.00 0.00 0.00 72 1020.8
20260902190506 61 272 0.0 0.0 0.00 0.00 0.00 73 1020.9
20260902190005 61 272 0.0 0.0 0.00 0.00 0.00 72 1020.7
20260902184505 62 273 0.0 0.0 0.00 0.00 0.00 71 1020.7
20260902184004 62 273 0.0 0.0 0.00 0.00 0.00 70 1020.4
20260902183504 62 274 0.0 0.0 0.00 0.00 0.00 70 1020.6
20260902183005 63 272 0.0 0.0 0.00 0.00 0.00 69 1020.3
20260902181504 65 269 0.0 0.0 0.00 0.00 0.00 66 1020.3
20260902181005 66 269 0.0 0.0 0.00 0.00 0.00 64 1020.3
20260902180006 68 269 0.0 0.0 0.00 0.00 0.00 60 1020.3
20260902174505 69 262 0.0 0.0 0.00 0.00 0.00 56 1020.0
20260902174004 70 262 0.0 0.0 0.00 0.00 0.00 57 1020.0
20260902173504 70 261 0.0 0.0 0.00 0.00 0.00 55 1020.0
20260902173005 71 261 0.0 2.6 0.00 0.00 0.00 54 1020.0
20260902171504 71 256 0.9 2.6 0.00 0.00 0.00 51 1019.9
20260902171005 71 260 0.0 1.7 0.00 0.00 0.00 52 1019.8
20260902170505 71 278 0.9 2.6 0.00 0.00 0.00 52 1019.7
20260902170005 72 266 1.7 8.7 0.00 0.00 0.00 50 1020.0
20260902164505 73 282 2.6 4.3 0.00 0.00 0.00 50 1020.0
20260902164004 73 264 4.3 8.7 0.00 0.00 0.00 49 1019.6
20260902163004 74 289 1.7 7.0 0.00 0.00 0.00 50 1020.0
20260902161004 74 283 5.2 8.7 0.00 0.00 0.00 50 1019.6
20260902160505 74 282 6.1 8.7 0.00 0.00 0.00 50 1019.6
20260902160007 74 309 0.9 11.3 0.00 0.00 0.00 50 1019.6
20260902154505 74 300 1.7 7.0 0.00 0.00 0.00 48 1019.7
20260902154005 74 279 2.6 12.2 0.00 0.00 0.00 50 1019.9
20260902153505 74 297 2.6 6.1 0.00 0.00 0.00 51 1019.6
20260902153005 74 281 2.6 8.7 0.00 0.00 0.00 51 1020.0
20260902151504 74 284 4.3 8.7 0.00 0.00 0.00 48 1020.0
20260902151004 73 263 1.7 7.0 0.00 0.00 0.00 49 1020.0
20260902150004 74 284 2.6 7.0 0.00 0.00 0.00 51 1020.0
20260902144504 74 263 1.7 11.3 0.00 0.00 0.00 52 1020.2
20260902144004 74 273 6.1 11.3 0.00 0.00 0.00 50 1020.3
20260902143504 75 315 3.5 7.0 0.00 0.00 0.00 49 1020.3
20260902143004 74 286 1.7 11.3 0.00 0.00 0.00 51 1020.3
20260902141005 75 270 5.2 11.3 0.00 0.00 0.00 48 1020.3
20260902140505 75 273 4.3 8.7 0.00 0.00 0.00 49 1020.1